Tracking 30995 objects as of 7-Jul-2025
HD Live streaming from Space Station
objects crossing your sky now

STARLINK-31216

Track STARLINK-31216 now!
10-day predictions
STARLINK-31216 is classified as:


NORAD ID: 58857
Int'l Code: 2024-019E
Perigee: 489.1 km
Apogee: 491.2 km
Inclination: 43.0 °
Period: 94.3 minutes
Semi major axis: 6861 km
RCS: Unknown
Launch date: January 29, 2024
Source: United States (US)
Launch site: AIR FORCE EASTERN TEST RANGE (AFETR)
Your satellite tracking list
BADR-5 (ARABSAT 5B)
Track 1 satellite(s)




NASA's NSSDC Master Catalog

Two Line Element Set (TLE):
1 58857U 24019E   25187.03208400  .00004344  00000-0  16722-3 0  9995
2 58857  43.0029 179.9631 0001579 271.7413  88.3258 15.27592679 81596
Source of the keplerian elements: AFSPC